sat.trackr.live / text

‹ back to catalog

STARLINK-35779

NORAD 67047 · 2025-294T

PAYLOAD ACTIVE UNKNOWN

§ Identity

Operator
Country
US
Launch date
2025-12-11
Launch site
AFETR
Launch vehicle
Mass (kg)
RCS (m²)

Purposes: comms

External: N2YO · Heavens-Above · Gunter

§ Orbital elements

Epoch: 2026-09-20T18:14:50.429760Z

Period
94.27 min
Inclination
43.0043°
Eccentricity
0.0001663
Mean motion
15.27587693 rev/d
Perigee alt
481.9 km
Apogee alt
484.2 km
Semi-major
6,861.2 km
B*
5.6814e-4
RAAN
16.3423°
Arg perigee
274.3924°
Mean anomaly
85.6737°
Rev number
4,463

§ Raw data

STARLINK-357791 67047U 25294T   26263.76030590  .00015408  00000+0  56814-3 0  99992 67047  43.0043  16.3423 0001663 274.3924  85.6737 15.27587693 44632

JSON: /api/v1/satellites/67047 · /tle

For live sub-satellite position, see the globe view (requires WebGL).

§ Visibility from observer

Set your observer location to see the next 7 days of passes ≥ 10°. The values pass through the URL so the page stays shareable.

No JS? Fill the form by hand. The geolocation button needs JavaScript.